When you browse on this site, cookies collect data to enhance your experience and personalize the content and advertising you see.
Visit our Privacy Policy to learn more. By continuing to use the site, you agree to this use of cookies and data.
EN

Hourly Weather Meiningen

Today, 7 July, Tuesday

Time Temperature Precipitation Wind Pressure Humidity
00:00 +10°C° 0 mm 1 mps 733 mmHg 94%
01:00 +9°C° 0 mm 1 mps 733 mmHg 95%
02:00 +9°C° 0 mm 1 mps 733 mmHg 95%
03:00 +8°C° 0 mm 1 mps 733 mmHg 96%
04:00 +7°C° 0 mm 0 mps 733 mmHg 96%
05:00 +9°C° 0 mm 1 mps 733 mmHg 92%
06:00 +11°C° 0 mm 1 mps 734 mmHg 89%
07:00 +12°C° 0 mm 1 mps 734 mmHg 86%
08:00 +14°C° 0 mm 1 mps 734 mmHg 76%
09:00 +15°C° 0 mm 2 mps 734 mmHg 67%
10:00 +16°C° 0 mm 2 mps 734 mmHg 58%
11:00 +17°C° 0 mm 2 mps 733 mmHg 54%
12:00 +19°C° 0 mm 3 mps 733 mmHg 50%
13:00 +20°C° 0 mm 3 mps 733 mmHg 46%
14:00 +20°C° 0 mm 3 mps 732 mmHg 48%
15:00 +20°C° 0 mm 3 mps 732 mmHg 49%
16:00 +20°C° 0 mm 3 mps 732 mmHg 51%
17:00 +19°C° 0 mm 3 mps 731 mmHg 56%
18:00 +18°C° 0 mm 2 mps 731 mmHg 61%
19:00 +18°C° 0 mm 2 mps 731 mmHg 67%
20:00 +16°C° 0 mm 2 mps 731 mmHg 72%
21:00 +15°C° 0 mm 1 mps 731 mmHg 77%
22:00 +14°C° 0 mm 1 mps 732 mmHg 82%
23:00 +13°C° 0 mm 1 mps 731 mmHg 85%

Tomorrow, 8 July, Wednesday

Time Temperature Precipitation Wind Pressure Humidity
00:00 +11°C° 0 mm 0 mps 731 mmHg 88%
01:00 +10°C° 0 mm 0 mps 731 mmHg 91%
02:00 +12°C° 0 mm 1 mps 731 mmHg 89%
03:00 +12°C° 0 mm 1 mps 731 mmHg 87%
04:00 +12°C° 0 mm 1 mps 730 mmHg 85%
05:00 +13°C° 0 mm 1 mps 730 mmHg 85%
06:00 +13°C° 0 mm 2 mps 730 mmHg 85%
07:00 +13°C° 0 mm 2 mps 730 mmHg 84%
08:00 +14°C° 0.1 mm 2 mps 730 mmHg 85%
09:00 +13°C° 0.1 mm 3 mps 730 mmHg 85%
10:00 +14°C° 0.1 mm 3 mps 730 mmHg 86%
11:00 +14°C° 0.2 mm 3 mps 730 mmHg 87%
12:00 +14°C° 0.2 mm 3 mps 730 mmHg 88%
13:00 +13°C° 0.2 mm 3 mps 730 mmHg 89%
14:00 +14°C° 0.2 mm 2 mps 730 mmHg 91%
15:00 +14°C° 0.2 mm 2 mps 730 mmHg 93%
16:00 +14°C° 0.2 mm 2 mps 731 mmHg 95%
17:00 +14°C° 0 mm 2 mps 731 mmHg 95%
18:00 +14°C° 0 mm 2 mps 731 mmHg 95%
19:00 +15°C° 0 mm 1 mps 731 mmHg 94%
20:00 +14°C° 0 mm 1 mps 731 mmHg 95%
21:00 +14°C° 0 mm 1 mps 731 mmHg 96%
22:00 +13°C° 0 mm 1 mps 732 mmHg 97%
23:00 +13°C° 0 mm 1 mps 732 mmHg 97%

Day after tomorrow, 9 July, Thursday

Time Temperature Precipitation Wind Pressure Humidity
00:00 +13°C° 0 mm 1 mps 732 mmHg 97%
01:00 +13°C° 0 mm 1 mps 732 mmHg 97%
02:00 +13°C° 0 mm 1 mps 732 mmHg 97%
03:00 +13°C° 0 mm 1 mps 732 mmHg 98%
04:00 +13°C° 0 mm 1 mps 731 mmHg 98%
05:00 +14°C° 0 mm 1 mps 732 mmHg 97%
06:00 +14°C° 0 mm 1 mps 732 mmHg 97%
07:00 +15°C° 0 mm 1 mps 732 mmHg 96%
08:00 +16°C° 0.1 mm 1 mps 732 mmHg 94%
09:00 +17°C° 0.1 mm 2 mps 732 mmHg 91%
10:00 +18°C° 0.1 mm 2 mps 732 mmHg 89%
11:00 +19°C° 0.1 mm 2 mps 732 mmHg 81%
12:00 +21°C° 0.1 mm 3 mps 732 mmHg 74%
13:00 +22°C° 0.1 mm 3 mps 731 mmHg 67%
14:00 +24°C° 0.1 mm 3 mps 731 mmHg 65%
15:00 +25°C° 0.1 mm 3 mps 731 mmHg 63%
16:00 +25°C° 0.1 mm 3 mps 730 mmHg 61%
17:00 +24°C° 0 mm 3 mps 730 mmHg 65%
18:00 +24°C° 0 mm 2 mps 730 mmHg 70%
19:00 +23°C° 0 mm 1 mps 729 mmHg 75%
20:00 +22°C° 0 mm 1 mps 729 mmHg 79%
21:00 +19°C° 0 mm 2 mps 729 mmHg 83%
22:00 +18°C° 0 mm 2 mps 729 mmHg 87%
23:00 +18°C° 0 mm 2 mps 728 mmHg 89%

10 July, Friday

Time Temperature Precipitation Wind Pressure Humidity
00:00 +17°C° 0 mm 2 mps 727 mmHg 90%
01:00 +17°C° 0 mm 2 mps 727 mmHg 92%
02:00 +16°C° 0 mm 2 mps 727 mmHg 92%
03:00 +16°C° 0 mm 2 mps 726 mmHg 93%
04:00 +16°C° 0 mm 2 mps 726 mmHg 94%
05:00 +17°C° 0.3 mm 3 mps 725 mmHg 93%
06:00 +18°C° 0.3 mm 3 mps 725 mmHg 91%
07:00 +19°C° 0.3 mm 4 mps 725 mmHg 90%
08:00 +19°C° 0.6 mm 4 mps 725 mmHg 89%
09:00 +19°C° 0.6 mm 5 mps 726 mmHg 89%
10:00 +20°C° 0.6 mm 6 mps 726 mmHg 88%
11:00 +19°C° 0.3 mm 6 mps 726 mmHg 83%
12:00 +17°C° 0.3 mm 6 mps 727 mmHg 78%
13:00 +17°C° 0.3 mm 6 mps 727 mmHg 73%
14:00 +17°C° 0 mm 6 mps 728 mmHg 65%
15:00 +19°C° 0 mm 5 mps 728 mmHg 57%
16:00 +20°C° 0 mm 5 mps 729 mmHg 49%
17:00 +19°C° 0 mm 5 mps 729 mmHg 54%
18:00 +18°C° 0 mm 4 mps 730 mmHg 58%
19:00 +17°C° 0 mm 4 mps 730 mmHg 63%
20:00 +14°C° 0 mm 3 mps 731 mmHg 68%
21:00 +13°C° 0 mm 2 mps 731 mmHg 74%
22:00 +10°C° 0 mm 2 mps 732 mmHg 80%
23:00 +10°C° 0 mm 1 mps 732 mmHg 84%

11 July, Saturday

Time Temperature Precipitation Wind Pressure Humidity
00:00 +9°C° 0 mm 1 mps 733 mmHg 87%
01:00 +9°C° 0 mm 1 mps 733 mmHg 90%
02:00 +8°C° 0 mm 1 mps 733 mmHg 91%
03:00 +8°C° 0 mm 1 mps 733 mmHg 92%
04:00 +8°C° 0 mm 1 mps 734 mmHg 93%
05:00 +9°C° 0 mm 1 mps 734 mmHg 86%
06:00 +11°C° 0 mm 1 mps 734 mmHg 79%
07:00 +12°C° 0 mm 1 mps 734 mmHg 72%
08:00 +14°C° 0 mm 2 mps 734 mmHg 66%
09:00 +14°C° 0 mm 3 mps 735 mmHg 60%
10:00 +17°C° 0 mm 3 mps 735 mmHg 54%
11:00 +18°C° 0 mm 3 mps 734 mmHg 51%
12:00 +19°C° 0 mm 4 mps 734 mmHg 48%
13:00 +20°C° 0 mm 4 mps 734 mmHg 46%
14:00 +20°C° 0.1 mm 3 mps 734 mmHg 49%
15:00 +19°C° 0.1 mm 3 mps 734 mmHg 51%
16:00 +19°C° 0.1 mm 3 mps 734 mmHg 54%
17:00 +18°C° 0.2 mm 3 mps 734 mmHg 63%
18:00 +17°C° 0.2 mm 2 mps 734 mmHg 71%
19:00 +16°C° 0.2 mm 2 mps 734 mmHg 80%
20:00 +14°C° 0.1 mm 2 mps 734 mmHg 84%
21:00 +13°C° 0.1 mm 1 mps 735 mmHg 87%
22:00 +11°C° 0.1 mm 1 mps 735 mmHg 91%
23:00 +11°C° 0 mm 1 mps 735 mmHg 92%

12 July, Sunday

Time Temperature Precipitation Wind Pressure Humidity
00:00 +10°C° 0 mm 1 mps 736 mmHg 94%
01:00 +10°C° 0 mm 1 mps 736 mmHg 95%
02:00 +9°C° 0 mm 1 mps 736 mmHg 95%
03:00 +9°C° 0 mm 1 mps 736 mmHg 95%
04:00 +8°C° 0 mm 1 mps 737 mmHg 95%
05:00 +9°C° 0 mm 1 mps 737 mmHg 92%
06:00 +10°C° 0 mm 1 mps 737 mmHg 88%
07:00 +12°C° 0 mm 1 mps 738 mmHg 85%
08:00 +13°C° 0 mm 1 mps 738 mmHg 74%
09:00 +15°C° 0 mm 1 mps 738 mmHg 64%
10:00 +18°C° 0 mm 1 mps 738 mmHg 54%
11:00 +18°C° 0 mm 2 mps 738 mmHg 50%
12:00 +19°C° 0 mm 2 mps 738 mmHg 47%
13:00 +20°C° 0 mm 2 mps 738 mmHg 44%
14:00 +20°C° 0 mm 2 mps 738 mmHg 45%
15:00 +20°C° 0 mm 2 mps 738 mmHg 46%
16:00 +20°C° 0 mm 3 mps 737 mmHg 46%
17:00 +19°C° 0 mm 3 mps 737 mmHg 53%
18:00 +18°C° 0 mm 3 mps 737 mmHg 59%
19:00 +17°C° 0 mm 3 mps 737 mmHg 66%
20:00 +15°C° 0 mm 2 mps 737 mmHg 73%
21:00 +13°C° 0 mm 2 mps 737 mmHg 81%
22:00 +11°C° 0 mm 1 mps 737 mmHg 89%
23:00 +10°C° 0 mm 1 mps 737 mmHg 89%
Show more